RH
80 71 65 69 72 76 75 82 83 84 87 88 86 87 80 81 77 76 76 70 76 74 82 84 81 78 70 61 54 57 51 59 61 55 51 50 53 57 62 72 66 77 77 57
73 70 69 69 73 73 71 74 77 79 82 87 88 88 85 82 82 81 80 85 76 78 87 85 78 75 64 56 57 56 60 67 72 60 53 51 56 58 62 67 68 66 84 60
67 73 77 63 74 81 85 79 73 77 78 73 76 81 78 81 80 88 85 80 75 80 81 84 85 74 62 56 57 70 69 76 70 65 55 58 63 65 70 73 81 73 67 62
64 64 63 68 71 76 90 93 86 67 68 73 76 73 67 69 67 63 64 68 73 73 83 77 77 83 77 62 72 78 76 76 73 58 64 69 65 71 75 79 79 90 62 70
62 61 68 71 58 67 83 92 90 88 79 75 75 72 63 58 58 64 65 66 63 68 71 69 76 69 76 71 68 75 74 73 69 65 69 73 70 62 67 71 70 74 69 63
62 63 62 61 70 73 72 75 83 82 74 74 75 77 75 78 76 69 60 60 65 64 60 63 57 59 63 59 60 65 72 73 80 79 77 78 76 56 62 59 62 69 70 55
58 61 71 70 67 69 79 86 86 88 80 71 64 67 74 76 72 70 68 62 61 54 54 55 56 54 56 58 58 65 83 95 98 94 91 88 55 53 55 60 58 59 55 61
66 50 51 73 75 71 63 73 88 94 94 85 74 81 77 70 70 71 72 71 60 57 60 62 66 64 65 65 74 84 91 98 98 98 96 75 63 64 63 63 54 57 60 63
81 66 48 38 71 80 77 57 75 91 91 73 76 81 87 83 79 80 76 78 84 82 92 91 90 86 84 81 79 79 86 92 99 98 97 91 60 57 51 52 58 56 60 66
91 83 61 45 53 78 85 67 59 78 89 85 78 77 76 80 86 91 93 90 97 96 97 97 97 92 84 86 85 87 93 98 97 94 94 77 58 55 60 70 60 60 63 67
94 96 78 57 57 75 87 84 73 60 78 75 86 83 78 88 87 90 91 98 98 98 99 97 97 96 92 91 82 86 87 93 84 76 78 72 51 55 63 61 60 62 65 69
82 89 89 69 61 82 98 97 96 90 78 79 83 88 81 82 87 99 98 97 97 97 98 98 95 91 84 77 80 74 75 65 77 77 69 54 58 63 66 66 68 68 67 71
71 78 77 80 65 86 99 98 99 99 97 76 78 85 91 89 91 94 99 95 99 98 96 97 96 95 85 88 90 79 73 70 74 73 59 62 66 71 74 75 75 75 75 80
80 78 76 68 60 70 97 99 96 98 99 97 77 69 75 88 90 96 97 99 97 92 96 98 98 88 87 84 81 76 70 69 69 72 70 74 73 76 77 78 78 77 76 76
87 88 77 70 57 49 79 99 98 99 99 95 79 77 83 90 94 98 96 96 98 97 98 98 96 90 77 82 84 73 69 75 81 81 80 81 79 79 77 76 75 74 74 76
72 81 76 68 59 55 76 82 74 70 79 91 94 85 90 95 97 98 96 98 93 89 87 86 86 74 91 94 81 67 70 75 80 80 80 79 78 81 78 75 73 72 73 74
62 60 58 59 65 75 89 93 72 68 83 89 90 79 73 73 75 76 82 92 95 86 76 88 97 96 95 95 82 73 75 82 81 78 78 77 77 78 77 77 78 78 79 78
61 68 71 72 85 86 92 87 80 86 95 93 98 90 69 68 78 88 94 98 90 78 88 89 91 95 96 87 75 79 80 79 75 73 74 75 75 77 79 79 80 78 76 70
62 74 85 87 80 83 82 74 78 87 91 91 75 74 87 92 96 97 98 88 93 97 96 94 93 94 87 79 81 80 79 76 75 76 77 80 81 80 79 73 67 63 58 56
67 75 79 78 80 83 87 87 87 89 93 98 97 94 96 94 94 96 85 95 98 95 87 92 93 83 77 81 80 77 76 74 76 76 73 71 67 63 60 57 55 53 48 43
74 81 82 80 83 82 94 97 97 97 97 96 97 97 96 97 92 86 95 97 95 93 85 91 85 79 74 71 71 73 74 73 70 65 62 60 58 54 50 47 44 42 40 37
93 90 94 96 94 92 96 96 95 94 94 96 97 98 97 97 97 98 97 94 92 88 83 87 81 71 70 67 62 61 63 64 62 59 56 53 50 48 47 44 42 40 34 29
94 93 91 85 85 86 89 87 90 92 86 87 91 94 92 95 93 93 93 92 88 83 89 83 75 73 68 60 57 56 54 53 50 47 45 44 42 41 39 36 33 29 27 25
69 72 80 79 83 83 82 80 79 81 79 84 84 88 89 92 91 90 87 88 82 84 83 72 59 51 50 48 48 46 45 43 42 41 40 39 39 38 38 36 33 31 28 27
61 62 77 76 74 75 74 74 75 74 74 69 69 70 65 71 74 71 69 70 67 62 54 48 50 46 44 43 43 45 46 46 45 44 43 43 42 41 37 35 34 33 32 32
31 38 43 47 46 48 49 50 52 54 55 52 50 56 53 58 54 54 53 51 48 42 43 46 46 47 48 49 51 51 51 50 48 47 46 44 42 41 38 35 35 36 36 35
35 44 43 42 41 41 43 46 48 47 44 44 40 39 40 47 50 50 48 49 45 49 52 52 50 47 47 48 48 48 49 48 47 47 46 44 43 42 41 38 38 40 39 41